Time,TemperatureF,DewpointF,PressureIn,WindDirection,WindDirectionDegrees,WindSpeedMPH,WindSpeedGustMPH,Humidity,HourlyPrecipIn,Conditions,Clouds,dailyrainin,SoftwareType,DateUTC
2013-07-25 00:01:00,75.0,74.7,29.89,NNW,335,0.0,0.0,99,0.00,CLR,,0.00,WeatherDisplay:10.37,2013-07-25 04:01:00,
2013-07-25 00:06:00,75.1,74.5,29.89,NNW,335,0.0,0.0,98,0.00,CLR,,0.00,WeatherDisplay:10.37,2013-07-25 04:06:00,
2013-07-25 00:11:00,74.9,74.3,29.89,NNW,335,0.0,0.0,98,0.00,CLR,,0.00,WeatherDisplay:10.37,2013-07-25 04:11:00,
2013-07-25 00:17:00,74.4,74.1,29.89,NNW,335,0.0,0.0,99,0.00,CLR,,0.00,WeatherDisplay:10.37,2013-07-25 04:17:00,
2013-07-25 00:22:00,74.3,74.3,29.89,NNW,335,0.0,0.0,100,0.00,CLR,,0.00,WeatherDisplay:10.37,2013-07-25 04:22:00,
2013-07-25 00:27:00,74.7,74.4,29.89,NNW,335,0.0,0.0,99,0.00,CLR,,0.00,WeatherDisplay:10.37,2013-07-25 04:27:00,
2013-07-25 00:32:00,74.5,74.5,29.89,NNW,335,0.0,0.0,100,0.00,CLR,,0.00,WeatherDisplay:10.37,2013-07-25 04:32:00,
2013-07-25 00:37:00,74.2,74.2,29.90,NNW,335,0.0,0.0,100,0.00,CLR,,0.00,WeatherDisplay:10.37,2013-07-25 04:37:00,
2013-07-25 00:42:00,74.6,74.6,29.90,NNW,335,0.0,0.0,100,0.00,CLR,,0.00,WeatherDisplay:10.37,2013-07-25 04:42:00,
2013-07-25 00:47:00,74.6,74.6,29.90,NNW,335,0.0,0.0,100,0.00,CLR,,0.00,WeatherDisplay:10.37,2013-07-25 04:47:00,
2013-07-25 00:52:00,74.3,74.3,29.90,NNW,335,0.0,0.0,100,0.00,CLR,,0.00,WeatherDisplay:10.37,2013-07-25 04:52:00,
2013-07-25 00:57:00,74.3,74.3,29.90,NNW,335,0.0,0.0,100,0.00,CLR,,0.00,WeatherDisplay:10.37,2013-07-25 04:57:00,
2013-07-25 01:02:00,74.8,74.8,29.90,NNW,335,0.0,0.0,100,0.00,CLR,,0.00,WeatherDisplay:10.37,2013-07-25 05:02:00,
2013-07-25 01:07:00,74.5,74.5,29.90,NNW,335,0.0,0.0,100,0.00,CLR,,0.00,WeatherDisplay:10.37,2013-07-25 05:07:00,
2013-07-25 01:12:00,74.3,74.3,29.90,NNW,335,0.0,0.0,100,0.00,CLR,,0.00,WeatherDisplay:10.37,2013-07-25 05:12:00,
2013-07-25 01:17:00,74.7,74.7,29.90,NNW,335,0.0,0.0,100,0.00,CLR,,0.00,WeatherDisplay:10.37,2013-07-25 05:17:00,
2013-07-25 01:22:00,74.5,74.5,29.90,NNW,335,0.0,0.0,100,0.00,CLR,,0.00,WeatherDisplay:10.37,2013-07-25 05:22:00,
2013-07-25 01:27:00,74.3,74.3,29.90,NNW,335,0.0,0.0,100,0.00,CLR,,0.00,WeatherDisplay:10.37,2013-07-25 05:27:00,
2013-07-25 01:32:00,74.4,74.4,29.89,NNW,335,0.0,0.0,100,0.00,CLR,,0.00,WeatherDisplay:10.37,2013-07-25 05:32:00,
2013-07-25 01:37:00,74.7,74.7,29.89,NNW,335,0.0,0.0,100,0.00,CLR,,0.00,WeatherDisplay:10.37,2013-07-25 05:37:00,
2013-07-25 01:42:00,74.3,74.3,29.90,NNW,335,0.0,0.0,100,0.00,CLR,,0.00,WeatherDisplay:10.37,2013-07-25 05:42:00,
2013-07-25 01:47:00,74.0,74.0,29.89,NNW,335,0.0,0.0,100,0.00,CLR,,0.00,WeatherDisplay:10.37,2013-07-25 05:47:00,
2013-07-25 01:52:00,75.1,75.1,29.89,NNW,335,0.0,0.0,100,0.00,CLR,,0.00,WeatherDisplay:10.37,2013-07-25 05:52:00,
2013-07-25 01:57:00,75.4,75.4,29.89,NNW,335,0.0,0.0,100,0.00,CLR,,0.00,WeatherDisplay:10.37,2013-07-25 05:57:00,
2013-07-25 02:02:00,74.9,74.9,29.89,NNW,335,0.0,0.0,100,0.00,CLR,,0.00,WeatherDisplay:10.37,2013-07-25 06:02:00,
2013-07-25 02:07:00,74.4,74.4,29.89,NNW,335,0.0,0.0,100,0.00,CLR,,0.00,WeatherDisplay:10.37,2013-07-25 06:07:00,
2013-07-25 02:12:00,74.5,74.5,29.89,NNW,335,0.0,0.0,100,0.00,CLR,,0.00,WeatherDisplay:10.37,2013-07-25 06:12:00,
2013-07-25 02:17:00,74.1,74.1,29.89,NNW,335,0.0,0.0,100,0.00,CLR,,0.00,WeatherDisplay:10.37,2013-07-25 06:17:00,
2013-07-25 02:22:00,73.6,73.6,29.88,NNW,335,0.0,0.0,100,0.00,CLR,,0.00,WeatherDisplay:10.37,2013-07-25 06:22:00,
2013-07-25 02:27:00,73.4,73.4,29.89,NNW,335,0.0,0.0,100,0.00,CLR,,0.00,WeatherDisplay:10.37,2013-07-25 06:27:00,
2013-07-25 02:32:00,73.8,73.8,29.89,NNW,335,0.0,0.0,100,0.00,CLR,,0.00,WeatherDisplay:10.37,2013-07-25 06:32:00,
2013-07-25 02:37:00,73.7,73.7,29.89,NNW,335,0.0,0.0,100,0.00,CLR,,0.00,WeatherDisplay:10.37,2013-07-25 06:37:00,
2013-07-25 02:42:00,73.4,73.4,29.89,NNW,335,0.0,0.0,100,0.00,CLR,,0.00,WeatherDisplay:10.37,2013-07-25 06:42:00,
2013-07-25 02:47:00,73.0,73.0,29.88,NNW,335,0.0,0.0,100,0.00,CLR,,0.00,WeatherDisplay:10.37,2013-07-25 06:47:00,
2013-07-25 02:52:00,72.8,72.8,29.89,NNE,17,4.6,4.6,100,0.00,CLR,,0.00,WeatherDisplay:10.37,2013-07-25 06:52:00,
2013-07-25 02:57:00,73.5,73.5,29.88,ESE,113,2.3,2.3,100,0.00,CLR,,0.00,WeatherDisplay:10.37,2013-07-25 06:57:00,
2013-07-25 03:02:00,73.8,73.5,29.89,ESE,113,0.0,0.0,99,0.00,CLR,,0.00,WeatherDisplay:10.37,2013-07-25 07:02:00,
2013-07-25 03:07:00,73.6,73.3,29.88,ESE,113,0.0,0.0,99,0.00,CLR,,0.00,WeatherDisplay:10.37,2013-07-25 07:07:00,
2013-07-25 03:12:00,73.4,73.4,29.88,ESE,113,0.0,0.0,100,0.00,CLR,,0.00,WeatherDisplay:10.37,2013-07-25 07:12:00,
2013-07-25 03:17:00,73.1,73.1,29.88,ESE,113,0.0,0.0,100,0.00,CLR,,0.00,WeatherDisplay:10.37,2013-07-25 07:17:00,
2013-07-25 03:22:00,73.3,73.3,29.88,ESE,113,0.0,0.0,100,0.00,CLR,,0.00,WeatherDisplay:10.37,2013-07-25 07:22:00,
2013-07-25 03:27:00,73.4,73.1,29.88,ESE,113,0.0,0.0,99,0.00,CLR,,0.00,WeatherDisplay:10.37,2013-07-25 07:27:00,
2013-07-25 03:32:00,73.3,73.3,29.88,ESE,113,0.0,0.0,100,0.00,CLR,,0.00,WeatherDisplay:10.37,2013-07-25 07:32:00,
2013-07-25 03:37:00,72.9,72.9,29.88,ESE,113,0.0,0.0,100,0.00,CLR,,0.00,WeatherDisplay:10.37,2013-07-25 07:37:00,
2013-07-25 03:42:00,72.7,72.7,29.88,ESE,113,0.0,0.0,100,0.00,CLR,,0.00,WeatherDisplay:10.37,2013-07-25 07:42:00,
2013-07-25 03:47:00,72.4,72.4,29.88,ESE,113,0.0,0.0,100,0.00,CLR,,0.00,WeatherDisplay:10.37,2013-07-25 07:47:00,
2013-07-25 03:52:00,72.6,72.6,29.88,ESE,113,0.0,0.0,100,0.00,CLR,,0.00,WeatherDisplay:10.37,2013-07-25 07:52:00,
2013-07-25 03:57:00,72.7,72.7,29.88,ESE,113,0.0,0.0,100,0.00,CLR,,0.00,WeatherDisplay:10.37,2013-07-25 07:57:00,
2013-07-25 04:02:00,72.5,72.5,29.88,ESE,113,0.0,0.0,100,0.00,CLR,,0.00,WeatherDisplay:10.37,2013-07-25 08:02:00,
2013-07-25 04:07:00,72.2,72.2,29.88,ESE,113,0.0,0.0,100,0.00,CLR,,0.00,WeatherDisplay:10.37,2013-07-25 08:07:00,
2013-07-25 04:13:00,72.0,72.0,29.89,ESE,113,0.0,0.0,100,0.00,CLR,,0.00,WeatherDisplay:10.37,2013-07-25 08:13:00,
2013-07-25 04:18:00,71.8,71.8,29.88,ESE,113,0.0,0.0,100,0.00,CLR,,0.00,WeatherDisplay:10.37,2013-07-25 08:18:00,
2013-07-25 04:23:00,71.5,71.5,29.88,ESE,113,0.0,0.0,100,0.00,CLR,,0.00,WeatherDisplay:10.37,2013-07-25 08:23:00,
2013-07-25 04:28:00,71.6,71.6,29.88,ESE,113,0.0,0.0,100,0.00,CLR,,0.00,WeatherDisplay:10.37,2013-07-25 08:28:00,
2013-07-25 04:33:00,71.9,71.9,29.88,ESE,113,0.0,0.0,100,0.00,CLR,,0.00,WeatherDisplay:10.37,2013-07-25 08:33:00,
2013-07-25 04:38:00,71.8,71.8,29.89,ESE,113,0.0,0.0,100,0.00,CLR,,0.00,WeatherDisplay:10.37,2013-07-25 08:38:00,
2013-07-25 04:43:00,71.5,71.5,29.89,ESE,113,0.0,0.0,100,0.00,CLR,,0.00,WeatherDisplay:10.37,2013-07-25 08:43:00,
2013-07-25 04:48:00,71.2,71.2,29.89,ESE,113,0.0,0.0,100,0.00,CLR,,0.00,WeatherDisplay:10.37,2013-07-25 08:48:00,
2013-07-25 04:53:00,71.0,71.0,29.88,ESE,113,0.0,0.0,100,0.00,CLR,,0.00,WeatherDisplay:10.37,2013-07-25 08:53:00,
2013-07-25 04:58:00,71.0,71.0,29.89,ESE,113,0.0,0.0,100,0.00,CLR,,0.00,WeatherDisplay:10.37,2013-07-25 08:58:00,
2013-07-25 05:03:00,71.5,71.5,29.88,ESE,113,0.0,0.0,100,0.00,CLR,,0.00,WeatherDisplay:10.37,2013-07-25 09:03:00,
2013-07-25 05:08:00,71.7,71.7,29.88,ESE,113,0.0,0.0,100,0.00,CLR,,0.00,WeatherDisplay:10.37,2013-07-25 09:08:00,
2013-07-25 05:13:00,71.5,71.5,29.89,ESE,113,0.0,0.0,100,0.00,CLR,,0.00,WeatherDisplay:10.37,2013-07-25 09:13:00,
2013-07-25 05:18:00,71.3,71.3,29.89,ESE,113,0.0,0.0,100,0.00,CLR,,0.00,WeatherDisplay:10.37,2013-07-25 09:18:00,
2013-07-25 05:23:00,71.0,71.0,29.89,ESE,113,0.0,0.0,100,0.00,CLR,,0.00,WeatherDisplay:10.37,2013-07-25 09:23:00,
2013-07-25 05:28:00,70.7,70.7,29.89,ESE,113,0.0,0.0,100,0.00,CLR,,0.00,WeatherDisplay:10.37,2013-07-25 09:28:00,
2013-07-25 05:33:00,70.6,70.6,29.89,ESE,113,0.0,0.0,100,0.00,CLR,,0.00,WeatherDisplay:10.37,2013-07-25 09:33:00,
2013-07-25 05:38:00,71.2,71.2,29.89,ESE,113,0.0,0.0,100,0.00,CLR,,0.00,WeatherDisplay:10.37,2013-07-25 09:38:00,
2013-07-25 05:43:00,71.2,71.2,29.90,ESE,113,0.0,0.0,100,0.00,CLR,,0.00,WeatherDisplay:10.37,2013-07-25 09:43:00,
2013-07-25 05:48:00,70.8,70.8,29.90,ESE,113,0.0,0.0,100,0.00,CLR,,0.00,WeatherDisplay:10.37,2013-07-25 09:48:00,
2013-07-25 05:53:00,70.7,70.7,29.90,ESE,113,0.0,0.0,100,0.00,CLR,,0.00,WeatherDisplay:10.37,2013-07-25 09:53:00,
2013-07-25 05:58:00,70.4,70.4,29.90,ESE,113,0.0,0.0,100,0.00,CLR,,0.00,WeatherDisplay:10.37,2013-07-25 09:58:00,
2013-07-25 06:03:00,70.3,70.3,29.90,ESE,113,0.0,0.0,100,0.00,CLR,,0.00,WeatherDisplay:10.37,2013-07-25 10:03:00,
2013-07-25 06:08:00,70.2,70.2,29.90,ESE,113,0.0,0.0,100,0.00,CLR,,0.00,WeatherDisplay:10.37,2013-07-25 10:08:00,
2013-07-25 06:13:00,70.0,70.0,29.90,ESE,113,0.0,0.0,100,0.00,CLR,,0.00,WeatherDisplay:10.37,2013-07-25 10:13:00,
2013-07-25 06:18:00,70.0,70.0,29.91,ESE,113,0.0,0.0,100,0.00,CLR,,0.00,WeatherDisplay:10.37,2013-07-25 10:18:00,
2013-07-25 06:23:00,69.9,69.9,29.90,ESE,113,0.0,0.0,100,0.00,CLR,,0.00,WeatherDisplay:10.37,2013-07-25 10:23:00,
2013-07-25 06:28:00,69.8,69.8,29.90,ESE,113,0.0,0.0,100,0.00,CLR,,0.00,WeatherDisplay:10.37,2013-07-25 10:28:00,
2013-07-25 06:33:00,69.8,69.8,29.91,ESE,113,0.0,0.0,100,0.00,CLR,,0.00,WeatherDisplay:10.37,2013-07-25 10:33:00,
2013-07-25 06:38:00,69.6,69.6,29.90,ESE,113,0.0,0.0,100,0.00,CLR,,0.00,WeatherDisplay:10.37,2013-07-25 10:38:00,
2013-07-25 06:43:00,69.5,69.5,29.90,ESE,113,0.0,0.0,100,0.00,CLR,,0.00,WeatherDisplay:10.37,2013-07-25 10:43:00,
2013-07-25 06:48:00,69.5,69.5,29.91,ESE,113,0.0,0.0,100,0.00,CLR,,0.00,WeatherDisplay:10.37,2013-07-25 10:48:00,
2013-07-25 06:53:00,69.4,69.4,29.91,ESE,113,0.0,0.0,100,0.00,CLR,,0.00,WeatherDisplay:10.37,2013-07-25 10:53:00,
2013-07-25 06:58:00,69.4,69.4,29.91,ESE,113,0.0,0.0,100,0.00,CLR,,0.00,WeatherDisplay:10.37,2013-07-25 10:58:00,
2013-07-25 06:59:00,69.4,69.4,29.91,ESE,113,0.0,0.0,100,0.00,CLR,,0.00,WeatherDisplay:10.37,2013-07-25 10:59:00,
2013-07-25 07:04:00,69.5,69.5,29.92,ESE,113,0.0,0.0,100,0.00,CLR,,0.00,WeatherDisplay:10.37,2013-07-25 11:04:00,
2013-07-25 07:09:00,69.5,69.5,29.92,ESE,113,0.0,0.0,100,0.00,CLR,,0.00,WeatherDisplay:10.37,2013-07-25 11:09:00,
2013-07-25 07:14:00,69.4,69.4,29.92,ESE,113,0.0,0.0,100,0.00,CLR,,0.00,WeatherDisplay:10.37,2013-07-25 11:14:00,
2013-07-25 07:19:00,69.5,69.5,29.92,ESE,113,0.0,0.0,100,0.00,CLR,,0.00,WeatherDisplay:10.37,2013-07-25 11:19:00,
2013-07-25 07:24:00,69.5,69.5,29.92,ESE,113,0.0,0.0,100,0.00,CLR,,0.00,WeatherDisplay:10.37,2013-07-25 11:24:00,
2013-07-25 07:29:00,69.5,69.5,29.92,ESE,113,0.0,0.0,100,0.00,CLR,,0.00,WeatherDisplay:10.37,2013-07-25 11:29:00,
2013-07-25 07:34:00,69.5,69.5,29.93,ESE,113,0.0,0.0,100,0.00,CLR,,0.00,WeatherDisplay:10.37,2013-07-25 11:34:00,
2013-07-25 07:39:00,69.6,69.6,29.93,ESE,113,0.0,0.0,100,0.00,CLR,,0.00,WeatherDisplay:10.37,2013-07-25 11:39:00,
2013-07-25 07:44:00,69.7,69.7,29.93,ESE,113,0.0,0.0,100,0.00,CLR,,0.00,WeatherDisplay:10.37,2013-07-25 11:44:00,
2013-07-25 07:49:00,69.8,69.8,29.93,ESE,113,0.0,0.0,100,0.00,CLR,,0.00,WeatherDisplay:10.37,2013-07-25 11:49:00,
2013-07-25 07:54:00,69.9,69.9,29.93,ESE,113,0.0,0.0,100,0.00,CLR,,0.00,WeatherDisplay:10.37,2013-07-25 11:54:00,
2013-07-25 07:59:00,70.2,70.2,29.93,ESE,113,0.0,0.0,100,0.00,CLR,,0.00,WeatherDisplay:10.37,2013-07-25 11:59:00,
2013-07-25 08:04:00,70.3,70.3,29.93,ESE,113,0.0,0.0,100,0.00,CLR,,0.00,WeatherDisplay:10.37,2013-07-25 12:04:00,
2013-07-25 08:09:00,70.5,70.5,29.94,ESE,113,0.0,0.0,100,0.00,CLR,,0.00,WeatherDisplay:10.37,2013-07-25 12:09:00,
2013-07-25 08:14:00,70.8,70.8,29.94,ENE,78,2.3,0.0,100,0.00,CLR,,0.00,WeatherDisplay:10.37,2013-07-25 12:14:00,
2013-07-25 08:19:00,71.2,71.2,29.94,ENE,78,0.0,0.0,100,0.00,CLR,,0.00,WeatherDisplay:10.37,2013-07-25 12:19:00,
2013-07-25 08:24:00,73.1,73.1,29.94,NW,323,1.2,1.2,100,0.00,CLR,,0.00,WeatherDisplay:10.37,2013-07-25 12:24:00,
2013-07-25 08:29:00,75.0,74.7,29.94,WNW,291,2.3,2.3,99,0.00,CLR,,0.00,WeatherDisplay:10.37,2013-07-25 12:29:00,
2013-07-25 08:34:00,75.4,74.2,29.94,North,10,6.9,6.9,96,0.00,CLR,,0.00,WeatherDisplay:10.37,2013-07-25 12:34:00,
2013-07-25 08:39:00,74.8,73.6,29.95,WNW,288,4.6,4.6,96,0.00,CLR,,0.00,WeatherDisplay:10.37,2013-07-25 12:39:00,
2013-07-25 08:44:00,74.7,73.8,29.95,NNE,31,2.3,2.3,97,0.00,CLR,,0.00,WeatherDisplay:10.37,2013-07-25 12:44:00,
2013-07-25 08:49:00,75.9,74.7,29.95,NE,45,0.5,0.0,96,0.00,CLR,,0.00,WeatherDisplay:10.37,2013-07-25 12:49:00,
2013-07-25 08:54:00,76.1,73.0,29.95,ENE,73,5.3,5.3,90,0.00,CLR,,0.00,WeatherDisplay:10.37,2013-07-25 12:54:00,
2013-07-25 08:59:00,75.6,73.1,29.96,ENE,64,4.6,4.6,92,0.00,CLR,,0.00,WeatherDisplay:10.37,2013-07-25 12:59:00,
2013-07-25 09:04:00,75.7,73.8,29.96,NE,52,4.6,4.6,94,0.00,CLR,,0.00,WeatherDisplay:10.37,2013-07-25 13:04:00,
2013-07-25 09:09:00,76.9,73.4,29.96,NW,315,0.0,0.0,89,0.00,CLR,,0.00,WeatherDisplay:10.37,2013-07-25 13:09:00,
2013-07-25 09:14:00,77.0,72.1,29.96,NE,38,3.5,3.5,85,0.00,CLR,,0.00,WeatherDisplay:10.37,2013-07-25 13:14:00,
2013-07-25 09:19:00,76.2,72.4,29.96,NE,38,4.6,4.6,88,0.00,CLR,,0.00,WeatherDisplay:10.37,2013-07-25 13:19:00,
2013-07-25 09:24:00,76.5,73.3,29.96,NE,56,2.3,2.3,90,0.00,CLR,,0.00,WeatherDisplay:10.37,2013-07-25 13:24:00,
2013-07-25 09:29:00,77.9,72.7,29.97,SSE,162,0.0,0.0,84,0.00,CLR,,0.00,WeatherDisplay:10.37,2013-07-25 13:29:00,
2013-07-25 09:34:00,78.0,72.4,29.97,ENE,78,4.6,4.6,83,0.00,CLR,,0.00,WeatherDisplay:10.37,2013-07-25 13:34:00,
2013-07-25 09:39:00,77.3,72.1,29.97,ESE,103,5.8,5.8,84,0.00,CLR,,0.00,WeatherDisplay:10.37,2013-07-25 13:39:00,
2013-07-25 09:44:00,77.3,72.8,29.97,ESE,104,2.3,2.3,86,0.00,CLR,,0.00,WeatherDisplay:10.37,2013-07-25 13:44:00,
2013-07-25 09:49:00,78.3,71.6,29.97,NE,38,6.9,6.9,80,0.00,CLR,,0.00,WeatherDisplay:10.37,2013-07-25 13:49:00,
2013-07-25 09:54:00,78.2,71.5,29.97,North,11,2.3,2.3,80,0.00,CLR,,0.00,WeatherDisplay:10.37,2013-07-25 13:54:00,
2013-07-25 09:59:00,77.7,72.1,29.97,ENE,62,3.5,3.5,83,0.00,CLR,,0.00,WeatherDisplay:10.37,2013-07-25 13:59:00,
2013-07-25 10:04:00,77.5,72.6,29.97,North,360,2.3,2.3,85,0.00,CLR,,0.00,WeatherDisplay:10.37,2013-07-25 14:04:00,
2013-07-25 10:09:00,78.7,72.4,29.97,NNE,27,4.6,4.6,81,0.00,CLR,,0.00,WeatherDisplay:10.37,2013-07-25 14:09:00,
2013-07-25 10:14:00,78.9,71.1,29.98,NE,52,2.9,2.9,77,0.00,CLR,,0.00,WeatherDisplay:10.37,2013-07-25 14:14:00,
2013-07-25 10:19:00,78.4,71.0,29.98,NNE,30,5.2,5.2,78,0.00,CLR,,0.00,WeatherDisplay:10.37,2013-07-25 14:19:00,
2013-07-25 10:24:00,78.3,70.9,29.98,WNW,301,2.9,2.9,78,0.00,CLR,,0.00,WeatherDisplay:10.37,2013-07-25 14:24:00,
2013-07-25 10:29:00,79.7,71.1,29.98,NW,326,3.5,3.5,75,0.00,CLR,,0.00,WeatherDisplay:10.37,2013-07-25 14:29:00,
2013-07-25 10:34:00,79.9,70.5,29.98,NE,41,3.5,3.5,73,0.00,CLR,,0.00,WeatherDisplay:10.37,2013-07-25 14:34:00,
2013-07-25 10:39:00,79.2,70.2,29.98,SE,138,4.6,4.6,74,0.00,CLR,,0.00,WeatherDisplay:10.37,2013-07-25 14:39:00,
2013-07-25 10:44:00,79.3,70.3,29.98,NNE,23,4.2,4.2,74,0.00,CLR,,0.00,WeatherDisplay:10.37,2013-07-25 14:44:00,
2013-07-25 10:49:00,80.3,70.4,29.98,NE,47,3.0,3.0,72,0.00,CLR,,0.00,WeatherDisplay:10.37,2013-07-25 14:49:00,
2013-07-25 10:54:00,80.3,69.6,29.98,NNE,23,2.3,2.3,70,0.00,CLR,,0.00,WeatherDisplay:10.37,2013-07-25 14:54:00,
2013-07-25 10:59:00,79.9,70.1,29.98,ENE,73,3.5,3.5,72,0.00,CLR,,0.00,WeatherDisplay:10.37,2013-07-25 14:59:00,
2013-07-25 11:04:00,80.4,70.5,29.98,ESE,110,1.2,1.2,72,0.00,CLR,,0.00,WeatherDisplay:10.37,2013-07-25 15:04:00,
2013-07-25 11:09:00,81.2,70.1,29.98,ENE,61,6.9,6.9,69,0.00,CLR,,0.00,WeatherDisplay:10.37,2013-07-25 15:09:00,
2013-07-25 11:14:00,80.8,70.1,29.98,North,360,1.2,1.2,70,0.00,CLR,,0.00,WeatherDisplay:10.37,2013-07-25 15:14:00,
2013-07-25 11:19:00,80.5,70.6,29.98,North,7,4.6,4.6,72,0.00,CLR,,0.00,WeatherDisplay:10.37,2013-07-25 15:19:00,
2013-07-25 11:24:00,81.3,69.7,29.98,NE,48,6.9,6.9,68,0.00,CLR,,0.00,WeatherDisplay:10.37,2013-07-25 15:24:00,
2013-07-25 11:29:00,81.5,69.9,29.98,ESE,119,3.5,3.5,68,0.00,CLR,,0.00,WeatherDisplay:10.37,2013-07-25 15:29:00,
2013-07-25 11:34:00,80.6,69.5,29.98,NNE,27,4.6,4.6,69,0.00,CLR,,0.00,WeatherDisplay:10.37,2013-07-25 15:34:00,
2013-07-25 11:39:00,80.1,69.8,29.99,West,272,0.0,0.0,71,0.00,CLR,,0.00,WeatherDisplay:10.37,2013-07-25 15:39:00,
2013-07-25 11:44:00,80.0,71.0,29.99,North,6,4.6,4.6,74,0.00,CLR,,0.00,WeatherDisplay:10.37,2013-07-25 15:44:00,
2013-07-25 11:49:00,79.9,71.3,29.99,ESE,117,2.7,2.7,75,0.00,CLR,,0.00,WeatherDisplay:10.37,2013-07-25 15:49:00,
2013-07-25 11:54:00,79.8,70.8,29.98,NE,35,0.6,0.6,74,0.00,CLR,,0.00,WeatherDisplay:10.37,2013-07-25 15:54:00,
2013-07-25 11:59:00,79.9,71.7,29.98,East,79,0.0,0.0,76,0.00,CLR,,0.00,WeatherDisplay:10.37,2013-07-25 15:59:00,
2013-07-25 12:04:00,80.0,71.0,29.98,NNW,337,6.9,6.9,74,0.00,CLR,,0.00,WeatherDisplay:10.37,2013-07-25 16:04:00,
2013-07-25 12:09:00,80.3,70.9,29.98,NNE,30,5.8,5.8,73,0.00,CLR,,0.00,WeatherDisplay:10.37,2013-07-25 16:09:00,
2013-07-25 12:14:00,80.7,71.2,29.98,SW,215,0.0,0.0,73,0.00,CLR,,0.00,WeatherDisplay:10.37,2013-07-25 16:14:00,
2013-07-25 12:19:00,81.4,70.7,29.98,NE,54,5.8,5.8,70,0.00,CLR,,0.00,WeatherDisplay:10.37,2013-07-25 16:19:00,
2013-07-25 12:24:00,82.1,71.8,29.98,NE,54,0.0,0.0,71,0.00,CLR,,0.00,WeatherDisplay:10.37,2013-07-25 16:24:00,
2013-07-25 12:29:00,82.4,70.3,29.98,WSW,241,3.5,3.5,67,0.00,CLR,,0.00,WeatherDisplay:10.37,2013-07-25 16:29:00,
2013-07-25 12:34:00,82.9,71.3,29.98,East,80,0.0,0.0,68,0.00,CLR,,0.00,WeatherDisplay:10.37,2013-07-25 16:34:00,
2013-07-25 12:39:00,82.8,69.8,29.98,NW,313,1.2,0.0,65,0.00,CLR,,0.00,WeatherDisplay:10.37,2013-07-25 16:39:00,
2013-07-25 12:44:00,83.0,72.6,29.98,East,85,2.9,2.9,71,0.00,CLR,,0.00,WeatherDisplay:10.37,2013-07-25 16:44:00,
2013-07-25 12:49:00,83.0,70.5,29.98,ENE,65,1.2,1.2,66,0.00,CLR,,0.00,WeatherDisplay:10.37,2013-07-25 16:49:00,
2013-07-25 12:55:00,83.1,71.0,29.98,ENE,65,1.2,0.0,67,0.00,CLR,,0.00,WeatherDisplay:10.37,2013-07-25 16:55:00,
2013-07-25 13:00:00,83.4,69.9,29.98,NE,44,0.0,0.0,64,0.00,CLR,,0.00,WeatherDisplay:10.37,2013-07-25 17:00:00,
2013-07-25 13:05:00,83.5,69.1,29.98,WNW,288,0.0,0.0,62,0.00,CLR,,0.00,WeatherDisplay:10.37,2013-07-25 17:05:00,
2013-07-25 13:10:00,83.8,69.9,29.98,SE,128,0.0,0.0,63,0.00,CLR,,0.00,WeatherDisplay:10.37,2013-07-25 17:10:00,
2013-07-25 13:15:00,85.0,69.6,29.98,SE,128,0.0,0.0,60,0.00,CLR,,0.00,WeatherDisplay:10.37,2013-07-25 17:15:00,
2013-07-25 13:20:00,85.8,69.3,29.98,NNE,32,2.2,2.2,58,0.00,CLR,,0.00,WeatherDisplay:10.37,2013-07-25 17:20:00,
2013-07-25 13:25:00,86.7,69.1,29.98,ESE,107,0.0,0.1,56,0.00,CLR,,0.00,WeatherDisplay:10.37,2013-07-25 17:25:00,
2013-07-25 13:30:00,86.3,68.8,29.98,ENE,71,3.5,0.0,56,0.00,CLR,,0.00,WeatherDisplay:10.37,2013-07-25 17:30:00,
2013-07-25 13:35:00,85.4,68.9,29.98,West,264,1.2,0.0,58,0.00,CLR,,0.00,WeatherDisplay:10.37,2013-07-25 17:35:00,
2013-07-25 13:40:00,85.5,69.0,29.98,West,264,0.0,0.0,58,0.00,CLR,,0.00,WeatherDisplay:10.37,2013-07-25 17:40:00,
2013-07-25 13:45:00,85.7,68.2,29.98,ESE,119,0.0,0.0,56,0.00,CLR,,0.00,WeatherDisplay:10.37,2013-07-25 17:45:00,
2013-07-25 13:50:00,87.2,70.1,29.98,ESE,119,0.0,0.0,57,0.00,CLR,,0.00,WeatherDisplay:10.37,2013-07-25 17:50:00,
2013-07-25 13:55:00,87.8,70.7,29.98,ESE,119,0.0,0.0,57,0.00,CLR,,0.00,WeatherDisplay:10.37,2013-07-25 17:55:00,
2013-07-25 14:00:00,86.7,69.1,29.98,NE,37,3.5,0.0,56,0.00,CLR,,0.00,WeatherDisplay:10.37,2013-07-25 18:00:00,
2013-07-25 14:05:00,85.8,69.8,29.98,NE,37,0.0,0.0,59,0.00,CLR,,0.00,WeatherDisplay:10.37,2013-07-25 18:05:00,
2013-07-25 14:10:00,85.7,69.2,29.98,NE,37,0.0,0.0,58,0.00,CLR,,0.00,WeatherDisplay:10.37,2013-07-25 18:10:00,
2013-07-25 14:15:00,86.3,67.7,29.98,NE,37,0.0,0.0,54,0.00,CLR,,0.00,WeatherDisplay:10.37,2013-07-25 18:15:00,
2013-07-25 14:20:00,86.6,68.5,29.98,NNE,21,2.3,2.3,55,0.00,CLR,,0.00,WeatherDisplay:10.37,2013-07-25 18:20:00,
2013-07-25 14:25:00,87.3,69.2,29.98,North,3,0.0,0.0,55,0.00,CLR,,0.00,WeatherDisplay:10.37,2013-07-25 18:25:00,
2013-07-25 14:30:00,87.5,67.7,29.98,North,10,0.0,0.0,52,0.00,CLR,,0.00,WeatherDisplay:10.37,2013-07-25 18:30:00,
2013-07-25 14:35:00,87.8,69.1,29.98,North,10,0.0,0.0,54,0.00,CLR,,0.00,WeatherDisplay:10.37,2013-07-25 18:35:00,
2013-07-25 14:40:00,88.1,67.7,29.98,NNE,30,0.0,0.0,51,0.00,CLR,,0.00,WeatherDisplay:10.37,2013-07-25 18:40:00,
2013-07-25 14:45:00,88.6,69.3,29.98,NE,49,1.2,1.2,53,0.00,CLR,,0.00,WeatherDisplay:10.37,2013-07-25 18:45:00,
2013-07-25 14:50:00,88.4,69.1,29.98,East,82,0.0,0.0,53,0.00,CLR,,0.00,WeatherDisplay:10.37,2013-07-25 18:50:00,
2013-07-25 14:55:00,88.1,67.7,29.97,East,82,0.0,0.0,51,0.00,CLR,,0.00,WeatherDisplay:10.37,2013-07-25 18:55:00,
2013-07-25 15:00:00,86.9,68.8,29.97,East,82,0.0,0.0,55,0.00,CLR,,0.00,WeatherDisplay:10.37,2013-07-25 19:00:00,
2013-07-25 15:05:00,87.2,69.1,29.98,East,82,0.0,0.0,55,0.00,CLR,,0.00,WeatherDisplay:10.37,2013-07-25 19:05:00,
2013-07-25 15:10:00,88.7,69.9,29.97,ESE,117,1.3,1.3,54,0.00,CLR,,0.00,WeatherDisplay:10.37,2013-07-25 19:10:00,
2013-07-25 15:15:00,89.9,68.8,29.98,SE,144,0.0,0.0,50,0.00,CLR,,0.00,WeatherDisplay:10.37,2013-07-25 19:15:00,
2013-07-25 15:20:00,89.9,68.8,29.98,SE,144,0.0,0.0,50,0.00,CLR,,0.00,WeatherDisplay:10.37,2013-07-25 19:20:00,
2013-07-25 15:25:00,88.6,68.7,29.98,SE,144,0.0,0.0,52,0.00,CLR,,0.00,WeatherDisplay:10.37,2013-07-25 19:25:00,
2013-07-25 15:30:00,87.0,69.4,29.98,SE,144,0.0,0.0,56,0.00,CLR,,0.00,WeatherDisplay:10.37,2013-07-25 19:30:00,
2013-07-25 15:35:00,86.2,68.7,29.98,SE,144,0.0,0.0,56,0.00,CLR,,0.00,WeatherDisplay:10.37,2013-07-25 19:35:00,
2013-07-25 15:40:00,86.5,69.5,29.97,SE,144,0.0,0.0,57,0.00,CLR,,0.00,WeatherDisplay:10.37,2013-07-25 19:40:00,
2013-07-25 15:45:00,87.5,68.8,29.97,SE,144,0.0,0.0,54,0.00,CLR,,0.00,WeatherDisplay:10.37,2013-07-25 19:45:00,
2013-07-25 15:50:00,88.4,69.1,29.97,SE,144,0.0,0.0,53,0.00,CLR,,0.00,WeatherDisplay:10.37,2013-07-25 19:50:00,
2013-07-25 15:55:00,88.3,67.9,29.97,NNE,18,0.0,0.0,51,0.00,CLR,,0.00,WeatherDisplay:10.37,2013-07-25 19:55:00,
2013-07-25 16:00:00,87.2,68.0,29.98,NNE,18,0.0,0.0,53,0.00,CLR,,0.00,WeatherDisplay:10.37,2013-07-25 20:00:00,
2013-07-25 16:05:00,86.1,68.6,29.97,NNE,18,0.0,0.0,56,0.00,CLR,,0.00,WeatherDisplay:10.37,2013-07-25 20:05:00,
2013-07-25 16:10:00,85.3,69.3,29.97,North,3,0.0,0.0,59,0.00,CLR,,0.00,WeatherDisplay:10.37,2013-07-25 20:10:00,
2013-07-25 16:15:00,84.9,69.9,29.97,North,3,0.0,0.0,61,0.00,CLR,,0.00,WeatherDisplay:10.37,2013-07-25 20:15:00,
2013-07-25 16:20:00,85.3,70.3,29.97,North,3,0.0,0.0,61,0.00,CLR,,0.00,WeatherDisplay:10.37,2013-07-25 20:20:00,
2013-07-25 16:25:00,85.4,71.8,29.97,NNE,25,0.0,0.0,64,0.00,CLR,,0.00,WeatherDisplay:10.37,2013-07-25 20:25:00,
2013-07-25 16:30:00,84.9,73.2,29.97,NNE,25,0.0,0.0,68,0.00,CLR,,0.00,WeatherDisplay:10.37,2013-07-25 20:30:00,
2013-07-25 16:35:00,84.8,72.2,29.97,NNE,25,0.0,0.0,66,0.00,CLR,,0.00,WeatherDisplay:10.37,2013-07-25 20:35:00,
2013-07-25 16:40:00,84.7,71.6,29.97,NNE,25,0.0,0.0,65,0.00,CLR,,0.00,WeatherDisplay:10.37,2013-07-25 20:40:00,
2013-07-25 16:45:00,84.5,71.9,29.97,NNE,25,0.0,0.0,66,0.00,CLR,,0.00,WeatherDisplay:10.37,2013-07-25 20:45:00,
2013-07-25 16:50:00,84.3,72.6,29.97,NNE,25,0.0,0.0,68,0.00,CLR,,0.00,WeatherDisplay:10.37,2013-07-25 20:50:00,
2013-07-25 16:55:00,84.4,71.8,29.97,NNE,25,0.0,0.0,66,0.00,CLR,,0.00,WeatherDisplay:10.37,2013-07-25 20:55:00,
2013-07-25 17:00:00,85.3,70.8,29.97,SE,133,0.0,0.0,62,0.00,CLR,,0.00,WeatherDisplay:10.37,2013-07-25 21:00:00,
2013-07-25 17:05:00,86.3,69.8,29.97,SE,133,0.0,0.0,58,0.00,CLR,,0.00,WeatherDisplay:10.37,2013-07-25 21:05:00,
2013-07-25 17:10:00,86.2,70.2,29.98,SE,133,0.0,0.0,59,0.00,CLR,,0.00,WeatherDisplay:10.37,2013-07-25 21:10:00,
2013-07-25 17:15:00,85.9,71.4,29.98,SE,133,0.0,0.0,62,0.00,CLR,,0.00,WeatherDisplay:10.37,2013-07-25 21:15:00,
2013-07-25 17:20:00,85.5,71.9,29.97,SE,133,0.0,0.0,64,0.00,CLR,,0.00,WeatherDisplay:10.37,2013-07-25 21:20:00,
2013-07-25 17:25:00,85.1,71.5,29.97,SE,133,0.0,0.0,64,0.00,CLR,,0.00,WeatherDisplay:10.37,2013-07-25 21:25:00,
2013-07-25 17:30:00,84.8,72.2,29.97,SE,133,0.0,0.0,66,0.00,CLR,,0.00,WeatherDisplay:10.37,2013-07-25 21:30:00,
2013-07-25 17:35:00,84.6,73.3,29.98,SE,133,0.0,0.0,69,0.00,CLR,,0.00,WeatherDisplay:10.37,2013-07-25 21:35:00,
2013-07-25 17:40:00,84.1,73.3,29.97,SE,133,0.0,0.0,70,0.00,CLR,,0.00,WeatherDisplay:10.37,2013-07-25 21:40:00,
2013-07-25 17:45:00,83.4,73.8,29.98,SE,133,0.0,0.0,73,0.00,CLR,,0.00,WeatherDisplay:10.37,2013-07-25 21:45:00,
2013-07-25 17:50:00,82.8,73.7,29.97,SE,133,0.0,0.0,74,0.00,CLR,,0.00,WeatherDisplay:10.37,2013-07-25 21:50:00,
2013-07-25 17:55:00,82.5,74.9,29.97,SE,133,0.0,0.0,78,0.00,CLR,,0.00,WeatherDisplay:10.37,2013-07-25 21:55:00,
2013-07-25 18:00:00,82.4,75.6,29.97,SE,133,0.0,0.0,80,0.00,CLR,,0.00,WeatherDisplay:10.37,2013-07-25 22:00:00,
2013-07-25 18:05:00,82.2,76.2,29.96,SE,133,0.0,0.0,82,0.00,CLR,,0.00,WeatherDisplay:10.37,2013-07-25 22:05:00,
2013-07-25 18:10:00,81.6,76.6,29.97,SE,133,0.0,0.0,85,0.00,CLR,,0.00,WeatherDisplay:10.37,2013-07-25 22:10:00,
2013-07-25 18:15:00,81.3,76.7,29.97,SE,133,0.0,0.0,86,0.00,CLR,,0.00,WeatherDisplay:10.37,2013-07-25 22:15:00,
2013-07-25 18:20:00,81.5,76.9,29.97,SE,133,0.0,0.0,86,0.00,CLR,,0.00,WeatherDisplay:10.37,2013-07-25 22:20:00,
2013-07-25 18:25:00,81.5,76.9,29.97,SE,133,0.0,0.0,86,0.00,CLR,,0.00,WeatherDisplay:10.37,2013-07-25 22:25:00,
2013-07-25 18:30:00,81.2,76.3,29.97,SE,133,0.0,0.0,85,0.00,CLR,,0.00,WeatherDisplay:10.37,2013-07-25 22:30:00,
2013-07-25 18:35:00,80.8,76.6,29.97,SE,133,0.0,0.0,87,0.00,CLR,,0.00,WeatherDisplay:10.37,2013-07-25 22:35:00,
2013-07-25 18:40:00,80.4,77.2,29.97,SE,133,0.0,0.0,90,0.01,RA,,0.02,WeatherDisplay:10.37,2013-07-25 22:40:00,
2013-07-25 18:45:00,80.2,78.6,29.97,SE,133,0.0,0.0,95,0.08,RA,,0.09,WeatherDisplay:10.37,2013-07-25 22:45:00,
2013-07-25 18:51:00,79.5,78.6,29.98,SE,133,0.0,0.0,97,0.15,RA,,0.17,WeatherDisplay:10.37,2013-07-25 22:51:00,
2013-07-25 18:56:00,78.9,78.6,30.00,SE,133,0.0,0.0,99,0.37,RA,,0.41,WeatherDisplay:10.37,2013-07-25 22:56:00,
2013-07-25 19:01:00,77.7,77.1,30.00,West,277,0.0,0.0,98,0.55,RA,,0.57,WeatherDisplay:10.37,2013-07-25 23:01:00,
2013-07-25 19:06:00,75.9,75.3,30.01,NNW,336,0.0,0.0,98,0.74,RA,,0.77,WeatherDisplay:10.37,2013-07-25 23:06:00,
2013-07-25 19:11:00,74.6,74.6,30.02,NW,312,1.2,1.2,100,0.96,RA,,0.99,WeatherDisplay:10.37,2013-07-25 23:11:00,
2013-07-25 19:16:00,73.6,73.6,30.03,NW,305,6.9,6.9,100,1.20,RA,,1.22,WeatherDisplay:10.37,2013-07-25 23:16:00,
2013-07-25 19:21:00,72.7,72.4,30.03,North,11,0.0,0.0,99,1.38,RA,,1.43,WeatherDisplay:10.37,2013-07-25 23:21:00,
2013-07-25 19:26:00,71.9,71.9,30.01,North,11,0.0,0.0,100,1.61,RA,,1.61,WeatherDisplay:10.37,2013-07-25 23:26:00,
2013-07-25 19:31:00,71.5,71.5,29.99,North,11,0.0,0.0,100,1.62,RA,,1.62,WeatherDisplay:10.37,2013-07-25 23:31:00,
2013-07-25 19:36:00,71.8,71.8,30.00,North,11,0.0,0.0,100,1.62,RA,,1.62,WeatherDisplay:10.37,2013-07-25 23:36:00,
2013-07-25 19:41:00,71.9,71.9,30.01,North,11,0.0,0.0,100,1.61,CLR,,1.62,WeatherDisplay:10.37,2013-07-25 23:41:00,
2013-07-25 19:46:00,72.0,72.0,30.03,North,11,0.0,0.0,100,1.54,CLR,,1.62,WeatherDisplay:10.37,2013-07-25 23:46:00,
2013-07-25 19:51:00,71.7,71.7,30.03,NE,55,1.2,0.0,100,1.47,CLR,,1.62,WeatherDisplay:10.37,2013-07-25 23:51:00,
2013-07-25 19:56:00,71.9,71.9,30.03,NE,55,0.0,0.0,100,1.25,CLR,,1.62,WeatherDisplay:10.37,2013-07-25 23:56:00,
2013-07-25 20:01:00,72.6,72.3,30.05,SW,227,0.0,0.0,99,1.10,RA,,1.65,WeatherDisplay:10.37,2013-07-26 00:01:00,
2013-07-25 20:06:00,71.9,71.9,30.06,SW,227,0.0,0.1,100,0.91,RA,,1.65,WeatherDisplay:10.37,2013-07-26 00:06:00,
2013-07-25 20:11:00,71.4,71.4,30.03,SW,227,0.0,0.0,100,0.69,,,1.65,WeatherDisplay:10.37,2013-07-26 00:11:00,
2013-07-25 20:16:00,71.4,71.4,30.03,SW,227,0.0,0.0,100,0.45,CLR,,1.65,WeatherDisplay:10.37,2013-07-26 00:16:00,
2013-07-25 20:21:00,72.5,72.5,30.03,SW,227,0.0,0.0,100,0.27,CLR,,1.65,WeatherDisplay:10.37,2013-07-26 00:21:00,
2013-07-25 20:26:00,73.7,73.7,30.03,SW,227,0.0,0.0,100,0.04,CLR,,1.65,WeatherDisplay:10.37,2013-07-26 00:26:00,
2013-07-25 20:31:00,74.1,74.1,30.03,SW,227,0.0,0.0,100,0.03,CLR,,1.65,WeatherDisplay:10.37,2013-07-26 00:31:00,
2013-07-25 20:36:00,74.0,74.0,30.03,SW,227,0.0,0.0,100,0.03,CLR,,1.65,WeatherDisplay:10.37,2013-07-26 00:36:00,
2013-07-25 20:41:00,73.9,73.6,30.03,SW,227,0.0,0.0,99,0.03,CLR,,1.65,WeatherDisplay:10.37,2013-07-26 00:41:00,
2013-07-25 20:46:00,73.4,73.4,30.02,SW,227,0.0,0.0,100,0.03,CLR,,1.65,WeatherDisplay:10.37,2013-07-26 00:46:00,
2013-07-25 20:51:00,72.8,72.8,30.03,SW,227,0.0,0.0,100,0.03,CLR,,1.65,WeatherDisplay:10.37,2013-07-26 00:51:00,
2013-07-25 20:56:00,73.0,73.0,30.03,SW,227,0.0,0.0,100,0.03,CLR,,1.65,WeatherDisplay:10.37,2013-07-26 00:56:00,
2013-07-25 21:02:00,72.9,72.9,30.04,SW,227,0.0,0.0,100,0.00,CLR,,1.65,WeatherDisplay:10.37,2013-07-26 01:02:00,
2013-07-25 21:07:00,72.2,72.2,30.04,SW,227,0.0,0.0,100,0.00,CLR,,1.65,WeatherDisplay:10.37,2013-07-26 01:07:00,
2013-07-25 21:12:00,71.9,71.9,30.04,SW,227,0.0,0.0,100,0.00,CLR,,1.65,WeatherDisplay:10.37,2013-07-26 01:12:00,
2013-07-25 21:17:00,72.3,72.3,30.04,SW,227,0.0,0.0,100,0.00,CLR,,1.65,WeatherDisplay:10.37,2013-07-26 01:17:00,
2013-07-25 21:22:00,72.2,72.2,30.04,SW,227,0.0,0.0,100,0.00,CLR,,1.65,WeatherDisplay:10.37,2013-07-26 01:22:00,
2013-07-25 21:27:00,71.9,71.9,30.04,SW,227,0.0,0.0,100,0.00,CLR,,1.65,WeatherDisplay:10.37,2013-07-26 01:27:00,
2013-07-25 21:32:00,71.9,71.9,30.04,SW,227,0.0,0.0,100,0.00,CLR,,1.65,WeatherDisplay:10.37,2013-07-26 01:32:00,
2013-07-25 21:37:00,72.0,72.0,30.03,SW,227,0.0,0.0,100,0.00,CLR,,1.65,WeatherDisplay:10.37,2013-07-26 01:37:00,
2013-07-25 21:42:00,71.7,71.7,30.04,NW,304,0.0,0.0,100,0.00,CLR,,1.65,WeatherDisplay:10.37,2013-07-26 01:42:00,
2013-07-25 21:47:00,71.4,71.4,30.04,NW,304,0.0,0.0,100,0.00,CLR,,1.65,WeatherDisplay:10.37,2013-07-26 01:47:00,
2013-07-25 21:52:00,71.6,71.6,30.04,NW,304,0.0,0.0,100,0.00,CLR,,1.65,WeatherDisplay:10.37,2013-07-26 01:52:00,
2013-07-25 21:57:00,71.6,71.6,30.04,NW,304,0.0,0.0,100,0.00,CLR,,1.65,WeatherDisplay:10.37,2013-07-26 01:57:00,
2013-07-25 22:02:00,71.5,71.5,30.04,NW,304,0.0,0.0,100,0.00,CLR,,1.65,WeatherDisplay:10.37,2013-07-26 02:02:00,
2013-07-25 22:07:00,71.6,71.6,30.04,NW,304,0.0,0.0,100,0.00,CLR,,1.65,WeatherDisplay:10.37,2013-07-26 02:07:00,
2013-07-25 22:12:00,71.9,71.9,30.04,NW,304,0.0,0.0,100,0.00,CLR,,1.65,WeatherDisplay:10.37,2013-07-26 02:12:00,
2013-07-25 22:17:00,71.6,71.6,30.04,NW,304,0.0,0.0,100,0.01,RA,,1.66,WeatherDisplay:10.37,2013-07-26 02:17:00,
2013-07-25 22:22:00,71.3,71.3,30.04,NW,304,0.0,0.0,100,0.01,RA,,1.66,WeatherDisplay:10.37,2013-07-26 02:22:00,
2013-07-25 22:27:00,71.2,71.2,30.04,NW,304,0.0,0.0,100,0.01,CLR,,1.66,WeatherDisplay:10.37,2013-07-26 02:27:00,
2013-07-25 22:32:00,71.5,71.5,30.04,NW,304,0.0,0.0,100,0.01,CLR,,1.66,WeatherDisplay:10.37,2013-07-26 02:32:00,
2013-07-25 22:37:00,71.6,71.6,30.04,NW,304,0.0,0.0,100,0.01,CLR,,1.66,WeatherDisplay:10.37,2013-07-26 02:37:00,
2013-07-25 22:42:00,72.4,72.4,30.04,NW,304,0.0,0.0,100,0.01,CLR,,1.66,WeatherDisplay:10.37,2013-07-26 02:42:00,
2013-07-25 22:47:00,72.5,72.5,30.04,NW,304,0.0,0.0,100,0.01,CLR,,1.66,WeatherDisplay:10.37,2013-07-26 02:47:00,
2013-07-25 22:52:00,72.0,72.0,30.05,NW,304,0.0,0.0,100,0.01,CLR,,1.66,WeatherDisplay:10.37,2013-07-26 02:52:00,
2013-07-25 22:57:00,71.4,71.4,30.04,NW,304,0.0,0.0,100,0.01,CLR,,1.66,WeatherDisplay:10.37,2013-07-26 02:57:00,
2013-07-25 23:02:00,71.3,71.3,30.04,NW,304,0.0,0.0,100,0.01,CLR,,1.66,WeatherDisplay:10.37,2013-07-26 03:02:00,
2013-07-25 23:07:00,71.4,71.4,30.04,NW,304,0.0,0.0,100,0.01,CLR,,1.66,WeatherDisplay:10.37,2013-07-26 03:07:00,
2013-07-25 23:12:00,71.1,71.1,30.04,NW,304,0.0,0.0,100,0.01,CLR,,1.66,WeatherDisplay:10.37,2013-07-26 03:12:00,
2013-07-25 23:17:00,71.3,71.3,30.05,NW,304,0.0,0.0,100,0.00,CLR,,1.66,WeatherDisplay:10.37,2013-07-26 03:17:00,
2013-07-25 23:22:00,71.5,71.5,30.05,NW,304,0.0,0.0,100,0.00,CLR,,1.66,WeatherDisplay:10.37,2013-07-26 03:22:00,
2013-07-25 23:27:00,71.0,71.0,30.05,NW,304,0.0,0.0,100,0.00,CLR,,1.66,WeatherDisplay:10.37,2013-07-26 03:27:00,
2013-07-25 23:32:00,70.6,70.6,30.05,NW,304,0.0,0.0,100,0.00,CLR,,1.66,WeatherDisplay:10.37,2013-07-26 03:32:00,
2013-07-25 23:37:00,70.6,70.6,30.06,NW,304,0.0,0.0,100,0.00,CLR,,1.66,WeatherDisplay:10.37,2013-07-26 03:37:00,
2013-07-25 23:42:00,70.7,70.7,30.06,NW,304,0.0,0.0,100,0.00,CLR,,1.66,WeatherDisplay:10.37,2013-07-26 03:42:00,
2013-07-25 23:47:00,70.5,70.5,30.06,NW,304,0.0,0.0,100,0.00,CLR,,1.66,WeatherDisplay:10.37,2013-07-26 03:47:00,
2013-07-25 23:52:00,70.4,70.4,30.06,NW,304,0.0,0.0,100,0.00,CLR,,1.66,WeatherDisplay:10.37,2013-07-26 03:52:00,
2013-07-25 23:57:00,70.7,70.7,30.06,NW,304,0.0,0.0,100,0.00,CLR,,1.66,WeatherDisplay:10.37,2013-07-26 03:57:00,